Regional Weather Roundup
Issued by NWS

Home | Current Version | Previous Version | Graphics & Text | Print | Product List | Glossary Off
Versions: 1 2 3 4 5 6 7 8 9 10 11 12 13 14 15 16 17 18 19 20 21 22 23 24 25 26 27 28 29 30 31 32 33 34 35 36 37 38 39 40 41 42 43 44 45 46 47 48 49 50

000
ASUS43 KMKX 170300
RWRWI

WISCONSIN REGIONAL WEATHER ROUNDUP
NATIONAL WEATHER SERVICE MILWAUKEE/SULLIVAN WI
1000 PM CDT TUE SEP 16 2014

NOTE: "FAIR" INDICATES FEW OR NO CLOUDS BELOW 12,000 FEET WITH NO
SIGNIFICANT WEATHER AND/OR OBSTRUCTIONS TO VISIBILITY.

WIZ001-002-006>008-014>016-023>028-170400-
NORTHWEST WISCONSIN

CITY           SKY/WX    TMP DP  RH WIND       PRES   REMARKS
SUPERIOR ARPT  CLEAR     51  46  81 W5        29.99S
ASHLAND        PTCLDY    54  44  69 SW8       30.00S
HAYWARD        CLEAR     47  43  86 CALM      30.03S
SIREN          CLEAR     47  45  90 CALM      30.03S
RICE LAKE      CLEAR     46  45  93 CALM      30.05S
LADYSMITH      CLEAR     47  44  90 CALM      30.06S
EAU CLAIRE     CLEAR     46  43  89 CALM      30.04S
MENOMONIE      CLEAR     49  47  93 E3        30.04S
NEW RICHMOND   CLEAR     49  44  84 CALM      30.03F
OSCEOLA        CLEAR     49  48  99 CALM      30.05S
$$

WIZ003>005-009-010-017-018-170400-
NORTH CENTRAL WISCONSIN

CITY           SKY/WX    TMP DP  RH WIND       PRES   REMARKS
WOODRUFF       CLEAR     51  44  79 SW3       30.03S
RHINELANDER    CLEAR     47  42  83 SW3       30.04S
EAGLE RIVER    CLEAR     48  41  78 SW5       30.02S
LAND O LAKES   CLOUDY    49  44  83 CALM      30.03S
PHILLIPS       CLEAR     46  43  88 SW3       30.03S
TOMAHAWK       CLEAR     47  43  85 CALM      30.05S
MEDFORD        CLEAR     45  42  90 CALM      30.05S
MERRILL        PTCLDY    46  43  90 CALM      30.05S
$$

WIZ029-030-035-036-043>047-170400-
CENTRAL WISCONSIN

CITY           SKY/WX    TMP DP  RH WIND       PRES   REMARKS
WAUSAU         CLEAR     50  45  83 CALM      30.04S
MOSINEE        CLEAR     52  46  82 SW3       30.06F
MARSHFIELD     CLEAR     48  45  89 SW6       30.06S
STEVENS POINT  CLEAR     46  43  90 CALM      30.06S
WAUPACA        CLEAR     50  46  87 CALM      30.06F
WAUTOMA        NOT AVBL
WISC RAPIDS    CLEAR     43  41  93 CALM      30.08S
CAMP DOUGLAS   NOT AVBL
$$

WIZ011>013-019>022-031-037>040-048>050-170400-
NORTHEAST WISCONSIN

CITY           SKY/WX    TMP DP  RH WIND       PRES   REMARKS
ANTIGO         CLEAR     48  44  84 W7        30.05S
STURGEON BAY   CLEAR     52  45  76 SW7       30.04S
GREEN BAY      CLEAR     52  46  80 S3        30.05S
MANITOWOC      NOT AVBL
APPLETON       CLEAR     54  43  66 SW7       30.06F
CLINTONVILLE   CLEAR     50  43  76 CALM      30.05S
OSHKOSH        CLEAR     51  43  74 S5        30.06F
$$

WIZ032>034-041-042-053>061-170400-
SOUTHWEST WISCONSIN

CITY           SKY/WX    TMP DP  RH WIND       PRES   REMARKS
LA CROSSE      CLEAR     52  47  83 SE6       30.06S
SPARTA         CLEAR     44  43  95 CALM      30.08S
VIROQUA        FAIR      51  44  75 S5        30.07S
BOSCOBEL       CLEAR     46  44  93 CALM      30.09R FOG
PRAIRIE DU CHI CLEAR     50  47  90 CALM      30.07S
PLATTEVILLE    FAIR      52  44  76 CALM      30.09S
$$

WIZ056-057-062-063-064-067-068-170400-
SOUTH CENTRAL WISCONSIN

CITY           SKY/WX    TMP DP  RH WIND       PRES   REMARKS
BARABOO/DELLS  CLEAR     47  44  87 S3        30.08S
LONE ROCK      NOT AVBL
WATERTOWN      CLEAR     45  44  97 CALM      30.08F
MADISON        CLEAR     47  45  93 CALM      30.09S
MIDDLETON      FAIR      46  46  99 CALM      30.09S
MONROE         CLEAR     54  45  71 CALM      30.09S
JANESVILLE     CLEAR     48  45  87 CALM      30.09S
$$

WIZ051-052-058>065-066-070>072-170400-
SOUTHEAST WISCONSIN

CITY           SKY/WX    TMP DP  RH WIND       PRES   REMARKS
MILWAUKEE      CLEAR     53  44  71 S6        30.09F
WAUKESHA       CLEAR     43  41  93 CALM      30.10F
MILWAUKEE/TIMM CLEAR     48  43  81 CALM      30.09F
RACINE         CLEAR     49  44  83 S3        30.10F
BURLINGTON     CLEAR     41  41  99 CALM      30.09F
KENOSHA        CLEAR     49  44  83 S3        30.09F
FOND DU LAC    CLEAR     48  43  82 SW6       30.07F
SHEBOYGAN      CLEAR     47  44  90 S3        30.07F
WEST BEND      CLEAR     45  43  93 CALM      30.08F
JUNEAU         CLEAR     48  45  87 CALM      30.09S
$$

LSZ147-162-170400-
LAKE SUPERIOR

STATION/POSITION TIME  TEMP    WIND        PRES    WAVE
                       AIR SEA DIR/SP/G            HT/PER
                 (UTC) (F)     (DEG/KT/KT) (MB)    (FT/S)
W MID LAKE BUOY  0150   52 47   90/  4/  4 1015.2R   2/ 5
DEVILS ISLAND    0200   57     230/ 11/ 13 1014.8R
PORT WING        0200   58     190/  7/  9 1015.2S
SAXON HARBOR     0200   58     200/  4/  8 1015.6
$$

LMZ867-665-643>646-170400-
LAKE MICHIGAN

STATION/POSITION TIME  TEMP    WIND        PRES    WAVE
                       AIR SEA DIR/SP/G            HT/PER
                 (UTC) (F)     (DEG/KT/KT) (MB)    (FT/S)
N MID LAKE BUOY  0150   59 59  220/ 16/ 19 1015.9R   3/ 5
NORTHPORT PIER   0200   57     180/  2/  6 1016.3R
KEWAUNEE LAKESHO 0200   56     230/  6/  8 1016.6F
SHEBOYGAN LAKESH 0200   55 49  220/  6/  6 1018.8F
PORT WASHINGTON  0200   53     270/  4/  5 1019.3
ATWATER BUOY     0200   58     190/ 10/ 10 1019.8F
MILWAUKEE LAKESH 0200   56     180/  5/  6   N/A
S MID LAKE BUOY  0150   59 64  180/  4/  6 1019.6S   1
KENOSHA   LAKESH 0200   58     190/  6/  7 1019.0S
$$

TC  - TEMPERATURE IN CELSIUS
VSB - VISIBILITY IN STATUTE MILES
WCI - WIND CHILL INDEX
HX  - HEAT INDEX



USA.gov is the U.S. government's official web portal to all federal, state and local government web resources and services.